Regional Weather Roundup
Issued by NWS Charleston, SC

Current Version | Previous Version | Graphics & Text | Print | Product List | Glossary On
Versions: 1 2 3 4 5 6 7 8 9 10 11 12 13 14 15 16 17 18 19 20 21 22 23 24 25 26 27 28 29 30 31 32 33 34 35 36 37 38 39 40 41 42 43 44 45 46 47 48 49 50
000
ASUS42 KCHS 060512
RWRCHS

REGIONAL WEATHER ROUNDUP
NATIONAL WEATHER SERVICE CHARLESTON SC
1200 AM EST FRI MAR 06 2015

NOTE: "FAIR" INDICATES FEW OR NO CLOUDS BELOW 12,000 FEET WITH NO
SIGNIFICANT WEATHER AND/OR OBSTRUCTIONS TO VISIBILITY.

NOT ALL STATIONS ARE QUALITY CONTROLLED BY THE NATIONAL
WEATHER SERVICE. USE DATA WITH CAUTION...ESPECIALLY
DEWPOINT OBSERVATIONS.

SCZ027-030-031-034>040-042>050-060600-
...SOUTHEAST SOUTH CAROLINA...

CITY           SKY/WX    TMP DP  RH WIND       PRES   REMARKS
N CHARLESTON   CLOUDY    45  42  89 NE20G25   30.22R
WATERFRONT PRK   N/A     46 N/A N/A N26         N/A
MOUNT PLEASANT CLOUDY    45  43  93 N9G18     30.22R
PINOPOLIS      NOT AVBL
MONCKS CORNER  CLOUDY    43  39  87 N13G20    30.23S FOG
SUMMERVILLE    CLOUDY    43  43 100 N13G20    30.24R
BEAUFORT MCAS  CLOUDY    48  45  89 N17G25    30.20R
BEAUFORT ARPT  CLOUDY    50  50 100 N16G28    30.20R
HILTON HEAD IS CLOUDY    55  54  94 N18G25    30.18R
WALTERBORO     CLOUDY    45  45 100 N9G17     30.24R FOG
ALLENDALE      CLOUDY    46  43  87 NE10G23   30.24R

...SOUTHERN MIDLANDS AND PEE DEE...

CITY           SKY/WX    TMP DP  RH WIND       PRES   REMARKS
GEORGETOWN     NOT AVBL
KINGSTREE      NOT AVBL
ORANGEBURG     LGT RAIN  41  37  86 NE16G25   30.27R FOG
BARNWELL       CLOUDY    45  43  93 NE14      30.25R FOG
AIKEN          CLOUDY    41  36  81 NE14G22   30.29R
MANNING        CLOUDY    41  34  75 N15G25    30.27S
COLUMBIA       LGT RAIN  42  36  79 NE10      30.29R
SUMTER         CLOUDY    38  35  85 NE20      30.25F WCI  29
FLORENCE       CLOUDY    39  34  82 NE15      30.29F WCI  31
MYRTLE BEACH   CLOUDY    39  34  81 N23       30.26S WCI  29
N MYRTLE BEACH CLOUDY    38  35  89 N13       30.25R WCI  30

$$

GAZ063-065-086>088-099>101-113>116-118-119-134>141-150-060600-
...SOUTHEAST GEORGIA...

CITY           SKY/WX    TMP DP  RH WIND       PRES   REMARKS
SAVANNAH ARPT  CLOUDY    55  49  80 NW13      30.18R
HUNTER AAF     CLOUDY    56  53  89 NW17      30.15R
FORT STEWART   CLOUDY    54  48  82 NW15      30.19R
STATESBORO     CLOUDY    50  46  85 NW6       30.22R
SYLVANIA       CLOUDY    50  49  97 NE10G16   30.23R FOG
CLAXTON        CLOUDY    50  45  81 NW10      30.23R

...CSRA...CENTRAL AND FAR SOUTHEAST GEORGIA...

CITY           SKY/WX    TMP DP  RH WIND       PRES   REMARKS
THOMSON        CLOUDY    46  43  91 NE9G17    30.30R
AUGUSTA-BUSH   CLOUDY    44  41  89 NE17      30.27R
AUGUSTA-DANIEL CLOUDY    45  40  82 NE16G23   30.26R
SWAINSBORO     CLOUDY    46  34  61 NW9       30.24S
VIDALIA        MOCLDY    46  41  81 NW9       30.24S
EASTMAN        MOCLDY    43  39  85 NW8       30.28S
HAZLEHURST     FAIR      47  44  87 N8        30.23S
ALMA           PTCLDY    49  42  77 NW13      30.22S
WAYCROSS       MOCLDY    55  51  85 N13       30.22R
JESUP          FAIR      55  52  88 NW8       30.21R
BAXLEY         FAIR      50  43  76 NW5       30.22F
BRUNSWICK      CLOUDY    61  55  82 W8        30.18R
SAINT SIMONS   CLOUDY    60  55  83 NW7       30.16S

$$

SCZ027-028-034-036>038-045-046-048>050-GAZ119-141-060600-
...LAKE AND SUPPLEMENTAL COASTAL OBSERVATIONS...

STATION/POSITION TIME  TEMP    WIND        PRES    WAVE   SWELL
                       AIR SEA DIR/SP/G            HT/PER HT/PER/DIR
                 (UTC) (F)     (DEG/KT/KT) (MB)    (FT/S) (FT/S/D)
UPR LAKE MARION  NOT AVBL
WINYAH BAY       0345   43      10/ 12     1022.0
LAKE MURRAY      0400   41      30/  6/ 11 1025.4R
ACE BASIN NERRS  NOT AVBL
FORT PULASKI     0400   59 54  300/ 13/ 15 1021.5R
SAPELO ISLAND    0400   61     300/ 12     1021.0R

$$

ANZ835-935-AMZ111-154-330-350-352-354-370-450-454-472-060600-
...C-MAN AND BUOY OBSERVATIONS...

STATION/POSITION TIME  TEMP    WIND        PRES    WAVE   SWELL
                       AIR SEA DIR/SP/G            HT/PER HT/PER/DIR
                 (UTC) (F)     (DEG/KT/KT) (MB)    (FT/S) (FT/S/D)
BUOY 41004       0450   50 68   20/ 27/ 33 1020.3R   6/ 5   2/11
BUOY 41008       0450   57 55  330/ 14/ 16 1020.6R   2/11   2/130/11
FOLLY BEACH CMAN 0500   46      10/ 20/ 23 1022.9R
CAPERS NEARSHORE 0400   49      10/ 21/ 25   N/A
FRIPP NEARSHORE  0400   57     310/ 10/ 14 1020.0


STATION/POSITION TIME  TEMP    WIND        PRES    WAVE   SWELL
                       AIR SEA DIR/SP/G            HT/PER HT/PER/DIR
                 (UTC) (F)     (DEG/KT/KT) (MB)    (FT/S) (FT/S/D)
5E ST. MARYS GA  0421      56                N/A     2/12   2/ 90/12
FRYING PAN BUOY  0450   45 64   10/ 25/ 37 1022.0R   8/ 6   2/110/10
BUOY 41025       NOT AVBL
CAPE LOOKOUT NC  0400          350/ 24/ 30 1023.5R
BUOY 41002       0450   74 73  230/ 21/ 25 1019.3F   7/ 7   5/260/ 7
BUOY 41010       0420   75 75  190/ 12/ 16 1020.9S
ST AUGUSTINE FL  0500   62      30/  1/  1 1021.2F


$$



USA.gov is the U.S. government's official web portal to all federal, state and local government web resources and services.